Hourly Data Report for October 02, 2013

All times are specified in Local Standard Time (LST). Add 1 hour to adjust for Daylight Saving Time where and when it is observed.

CAPE DORSET A
NUNAVUT

64°13'49.000" N
76°31'30.000" W
48.20 m
2400637
71366
YTE

Download Data

Hourly Data (October 2013)
Hourly Data Report for October 2, 2013
Temp Definition
°C
Dew Point Temp Definition
°C
Rel Hum Definition
%
Wind Dir Definition
10's deg

Wind Spd Definition
km/h
Visibility Definition
km
Stn Press Definition
kPa
Hmdx Definition


Wind Chill Definition


Weather Definition


TIME
00:00 Legend Double Dagger -0.1 -0.4 98 5 24 11.3 99.52   -6 LegendNANA
01:00 Legend Double Dagger -0.2 -0.6 97 5 24 16.1 99.49   -6 LegendNANA
02:00 Legend Double Dagger -0.1 -0.7 96 5 26 16.1 99.49   -6 LegendNANA
03:00 Legend Double Dagger -0.1 -0.5 97 5 22 16.1 99.47   -6 LegendNANA
04:00 Legend Double Dagger -0.3 -0.6 98 5 22 14.5 99.47   -6 LegendNANA
05:00 Legend Double Dagger -0.2 -0.8 96 5 22 16.1 99.47   -6 LegendNANA
06:00 Legend Double Dagger 0.1 -0.6 95 5 21 16.1 99.44     LegendNANA
07:00 Legend Double Dagger 0.2 -0.8 93 5 24 16.1 99.44     LegendNANA
08:00 Legend Double Dagger 0.4 -0.9 91 5 24 16.1 99.45     LegendNANA
09:00 Legend Double Dagger 0.6 -0.8 90 5 28 16.1 99.46     LegendNANA
10:00 Legend Double Dagger 1.0 -0.5 90 5 28 16.1 99.49     LegendNANA
11:00 Legend Double Dagger 1.4 -1.0 84 5 30 16.1 99.49     LegendNANA
12:00 Legend Double Dagger 1.5 -0.8 85 5 28 16.1 99.52     LegendNANA
13:00 Legend Double Dagger 1.9 -0.7 83 4 18 16.1 99.53     LegendNANA
14:00 Legend Double Dagger 2.1 -0.2 85 3 21 16.1 99.56     LegendNANA
15:00 Legend Double Dagger 1.9 0.1 88 4 21 16.1 99.58     LegendNANA
16:00 Legend Double Dagger 1.6 0.3 91 3 24 16.1 99.62     LegendNANA
17:00 Legend Double Dagger 1.9 0.3 89 5 30 16.1 99.65     LegendNANA
18:00 Legend Double Dagger 1.9 0.3 89 5 24 16.1 99.70     LegendNANA
19:00 Legend Double Dagger 1.6 0.1 90 2 21 16.1 99.74     LegendNANA
20:00 Legend Double Dagger 1.6 0.3 91 3 21 16.1 99.79     LegendNANA
21:00 Legend Double Dagger 1.4 0.2 92 1 21 16.1 99.82     LegendNANA
22:00 Legend Double Dagger 1.1 0.2 94 3 18 16.1 99.83     LegendNANA
23:00 Legend Double Dagger 1.2 0.2 93 4 22 16.1 99.83     LegendNANA

Notes on Data Quality.

Legend

  • E = Estimated
  • M = Missing
  • NA = Not Available
  • ‡ = Partner data that is not subject to review by the National Climate Archives
Date modified: